Sedalia, MO

1:07 AM CDT on August 19, 2017 (GMT -0500)
Sedalia Memorial

Weather History for KDMO - March, 2014

Change the Weather History Date:

Tuesday, March 11, 2014

  Actual Average Record
Temperature  
Mean Temperature 58 °F 44 °F  
Max Temperature 81 °F 55 °F 81 °F (2014)
Min Temperature 35 °F 34 °F -4 °F (1948)
Degree Days  
Heating Degree Days 7 21  
Month to date heating degree days 313 247  
Since 1 July heating degree days 4532 3864  
Cooling Degree Days 0 0  
Month to date cooling degree days 0 0  
Year to date cooling degree days 0 0  
Growing Degree Days 10 (Base 50)    
Moisture  
Dew Point 42 °F    
Average Humidity 63    
Maximum Humidity 92    
Minimum Humidity 33    
Precipitation  
Precipitation 0.26 in 0.07 in 1.45 in (1974)
Month to date precipitation 0.29 0.89  
Year to date precipitation 1.07 4.49  
Sea Level Pressure  
Sea Level Pressure 29.59 in    
Wind  
Wind Speed 17 mph (West)    
Max Wind Speed 32 mph    
Max Gust Speed 40 mph    
Visibility 9 miles    
Events Rain , Thunderstorm    
T = Trace of Precipitation, MM = Missing Value Source: NWS Daily Summary

Daily Weather History Graph

Daily Weather History Graph

Search for Another Location

Airport or City:

Trip Planner

Search our weather history database for the weather conditions in past years. The results will help you decide how hot, cold, wet, or windy it might be!

Date:

Astronomy

Mar. 11, 2014 Rise Set
Actual Time 7:30 AM CDT 7:15 PM CDT
Civil Twilight 7:03 AM CDT 7:42 PM CDT
Nautical Twilight 6:32 AM CDT 8:13 PM CDT
Astronomical Twilight 6:01 AM CDT 8:44 PM CDT
Moon 2:55 PM CDT (3/11) 4:21 AM CDT (3/11)
Length of Visible Light 12h 38m
Length of Day
11h 45m
Waxing Gibbous, 78% of the Moon is Illuminated
Mar 11
Waxing Gibbous
Mar 16
Full
Mar 23
Last Quarter
Mar 30
New
Apr 7
First Quarter

Hourly Weather History & Observations

Time (CDT) Temp. Windchill Dew Point Humidity Pressure Visibility Wind Dir Wind Speed Gust Speed Precip Events Conditions
12:53 AM 57.0 °F - 33.1 °F 40% 29.69 in 10.0 mi SW 11.5 mph - N/A   Clear
1:53 AM 55.9 °F - 32.0 °F 40% 29.68 in 10.0 mi SW 12.7 mph - N/A   Clear
2:53 AM 54.0 °F - 32.0 °F 43% 29.67 in 10.0 mi SSW 11.5 mph - N/A   Clear
3:53 AM 54.0 °F - 34.0 °F 47% 29.65 in 10.0 mi SSW 12.7 mph - N/A   Clear
4:53 AM 55.0 °F - 35.1 °F 47% 29.62 in 10.0 mi SSW 13.8 mph - N/A   Clear
5:53 AM 55.0 °F - 37.0 °F 51% 29.62 in 10.0 mi SSW 12.7 mph - N/A   Clear
6:53 AM 53.1 °F - 39.0 °F 59% 29.61 in 10.0 mi SSW 11.5 mph - N/A   Clear
7:53 AM 50.0 °F - 39.0 °F 66% 29.60 in 10.0 mi South 10.4 mph - N/A   Clear
8:53 AM 57.9 °F - 44.1 °F 60% 29.60 in 10.0 mi SSW 16.1 mph - N/A   Clear
9:53 AM 63.0 °F - 46.9 °F 56% 29.58 in 10.0 mi SSW 19.6 mph - N/A   Clear
10:53 AM 68.0 °F - 48.9 °F 50% 29.56 in 10.0 mi SSW 19.6 mph 23.0 mph N/A   Clear
11:53 AM 75.0 °F - 51.1 °F 43% 29.54 in 10.0 mi SSW 15.0 mph - N/A   Clear
12:53 PM 75.0 °F - 48.0 °F 38% 29.52 in 10.0 mi SSW 15.0 mph - N/A   Clear
1:53 PM 80.1 °F - 48.0 °F 32% 29.49 in 10.0 mi SW 15.0 mph 23.0 mph N/A   Clear
2:53 PM 78.1 °F - 50.0 °F 37% 29.47 in 10.0 mi SSW 13.8 mph - N/A   Clear
3:53 PM 79.0 °F - 50.0 °F 36% 29.45 in 10.0 mi SSW 9.2 mph - N/A   Clear
4:53 PM 79.0 °F - 48.9 °F 35% 29.44 in 10.0 mi South 10.4 mph - N/A   Scattered Clouds
5:53 PM 77.0 °F - 48.9 °F 37% 29.43 in 10.0 mi SW 9.2 mph - N/A   Mostly Cloudy
6:32 PM 75.9 °F - 50.0 °F 40% 29.45 in 10.0 mi SW 8.1 mph - N/A Thunderstorm Partly Cloudy
6:53 PM 73.9 °F - 50.0 °F 43% 29.44 in 10.0 mi SW 11.5 mph - N/A Thunderstorm Clear
7:23 PM 62.1 °F - 50.0 °F 65% 29.49 in 10.0 mi North 26.5 mph 34.5 mph N/A   Mostly Cloudy
7:53 PM 53.1 °F - 45.0 °F 74% 29.55 in 10.0 mi North 25.3 mph 34.5 mph N/A Thunderstorm Thunderstorm
8:11 PM 52.0 °F - 43.0 °F 71% 29.55 in 10.0 mi North 27.6 mph 36.8 mph N/A   Mostly Cloudy
8:51 PM 50.0 °F - 42.8 °F 76% 29.56 in 9.0 mi North 20.7 mph 31.1 mph N/A   Mostly Cloudy
8:53 PM 50.0 °F - 42.1 °F 74% 29.57 in 9.0 mi North 27.6 mph 33.4 mph N/A   Mostly Cloudy
9:03 PM 48.9 °F - 41.0 °F 74% 29.57 in 10.0 mi North 23.0 mph 35.7 mph N/A Thunderstorm Overcast
9:35 PM 45.0 °F 36.2 °F 41.0 °F 86% 29.64 in 4.0 mi North 24.2 mph 35.7 mph 0.06 in Rain , Thunderstorm Heavy Thunderstorms and Rain
9:44 PM 44.1 °F 35.4 °F 41.0 °F 89% 29.65 in 2.0 mi North 21.9 mph 31.1 mph 0.15 in Rain , Thunderstorm Heavy Thunderstorms and Rain
9:53 PM 44.1 °F 35.7 °F 41.0 °F 89% 29.67 in 2.0 mi North 20.7 mph 33.4 mph 0.21 in Rain , Thunderstorm Thunderstorms and Rain
10:02 PM 44.1 °F 34.8 °F 41.0 °F 89% 29.68 in 5.0 mi North 25.3 mph 38.0 mph 0.01 in Rain , Thunderstorm Light Rain
10:18 PM 43.0 °F 33.5 °F 41.0 °F 93% 29.67 in 8.0 mi North 24.2 mph 33.4 mph 0.02 in Rain Light Rain
10:48 PM 42.8 °F 32.7 °F 39.2 °F 87% 29.72 in 10.0 mi North 27.6 mph 34.5 mph 0.03 in Rain Light Rain
10:53 PM 42.1 °F 31.5 °F 39.0 °F 89% 29.71 in 10.0 mi North 28.8 mph 35.7 mph 0.03 in Rain Light Rain
11:26 PM 41.0 °F 30.0 °F 37.9 °F 89% 29.74 in 10.0 mi North 28.8 mph 38.0 mph 0.00 in Rain Light Rain
11:49 PM 39.2 °F 28.3 °F 37.4 °F 93% 29.76 in 10.0 mi North 25.3 mph 36.8 mph 0.01 in Rain Light Rain
11:53 PM 39.0 °F 27.6 °F 37.0 °F 93% 29.77 in 10.0 mi North 27.6 mph 36.8 mph 0.02 in Rain Light Rain